Вернуться в каталог

CZ-4 DEB

АктивенSSO
NORAD 20974·DEBRIS·🇨🇳 China

Запущен Sep 3, 1990 с Taiyuan Satellite Launch Center

Loading…

Ближайшие Пролёты (ближайшие 24 часа)

TLE

СвежийSource: Space-Track

Эпоха: Sep 14, 2026, 10:55 UTC

1 20974U 90081CG  26257.45543785  .00000950  00000-0  34927-3 0  9995
2 20974  98.5677 255.6625 0015496  75.0345  80.3682 14.34889014862551

Отслеживайте CZ-4 DEB в реальном времени с AllMySat

Download on the App Store